Lid_Strength_Index
11 10 9 10 11 10 12 13 16 13 12 9 8 7 6 5 4 5 4 4 3 3 3 3 3 2 2 1 2 1 2 2 2 1 1 1 1 1 1 1 1 1 1 1
14 10 10 12 10 10 10 10 10 10 11 7 6 5 6 5 5 5 5 4 4 3 3 3 3 2 2 2 2 2 2 2 2 2 2 1 1 1 1 1 1 1 2 3
16 10 11 15 12 10 9 8 9 11 8 6 7 6 5 5 5 5 4 4 4 3 3 2 2 2 2 2 1 2 2 2 2 2 2 2 2 2 2 2 2 3 3 4
15 12 19 10 7 7 8 8 7 7 7 6 6 6 6 5 5 5 4 4 3 3 3 2 2 3 2 2 1 2 2 2 2 2 2 2 2 2 2 3 5 4 5 5
16 15 12 10 8 8 9 9 6 7 6 6 5 5 6 5 4 4 4 4 3 2 2 2 3 3 2 2 2 2 2 2 2 2 2 2 2 2 2 3 4 5 5 6
14 17 18 10 7 5 6 12 6 6 6 6 5 9 6 4 4 4 4 3 2 2 2 2 3 3 3 2 2 2 2 2 2 2 2 2 2 2 3 4 6 7 8 8
14 15 12 7 6 5 13 11 5 5 5 5 6 5 4 3 3 3 3 3 3 3 3 3 3 2 4 3 3 2 2 2 2 2 2 2 2 3 4 6 8 9 10 10
14 16 17 6 6 10 8 6 6 5 5 5 4 4 4 3 4 4 4 3 3 3 4 3 2 2 3 4 3 2 1 2 2 2 2 2 3 5 6 7 9 12 13 14
11 11 6 5 6 5 4 5 5 5 4 4 5 5 4 4 3 3 3 3 2 3 3 3 3 3 3 3 4 3 2 2 2 2 2 3 4 6 8 8 9 12 12 12
10 7 6 6 5 4 4 5 4 4 4 4 5 4 4 4 3 3 3 3 3 3 3 4 3 3 3 3 3 3 3 2 2 3 4 4 5 6 8 9 10 11 12 12
9 7 6 6 5 4 4 4 4 4 4 5 5 5 4 4 3 3 3 2 2 3 3 3 2 3 3 3 2 2 2 2 3 3 5 6 6 7 7 8 10 10 11 12
11 6 7 6 4 4 5 5 5 5 5 5 5 5 5 4 3 3 3 3 3 3 3 3 2 3 3 2 2 2 2 3 3 5 5 7 10 13 15 14 14 13 12 11
6 4 5 4 4 4 6 5 5 5 5 7 6 6 5 5 4 4 3 3 3 3 2 2 2 3 2 1 1 2 2 3 5 7 7 9 10 11 14 15 15 15 15 15
5 5 6 5 6 6 5 5 5 5 5 6 6 7 7 7 6 5 4 3 3 2 2 2 2 3 2 1 1 2 2 9 6 7 8 9 10 11 13 14 15 15 15 15
5 5 6 5 5 6 6 6 7 7 7 7 7 8 8 8 8 8 6 5 3 3 2 2 2 2 1 1 2 2 4 6 6 8 9 10 11 12 12 13 14 15 15 15
6 6 6 7 7 7 8 8 8 8 8 9 9 10 10 10 10 9 8 7 6 4 3 3 2 2 1 2 2 3 6 9 9 10 11 11 11 12 13 14 15 15 15 16
7 8 8 8 8 9 9 9 9 9 9 10 10 11 11 12 12 12 11 9 7 4 2 2 2 2 2 3 5 7 8 11 11 11 12 12 12 13 14 14 15 15 16 15
6 6 7 8 9 10 10 10 10 10 10 10 11 12 12 13 14 13 11 9 8 8 4 3 5 5 6 7 7 9 10 11 11 12 13 13 13 14 14 15 15 15 16 16
6 6 7 9 9 10 10 10 10 10 10 10 11 12 13 13 13 12 11 11 11 11 11 9 10 8 8 9 8 9 11 12 13 13 14 14 14 14 15 15 15 15 15 15
7 7 8 8 8 9 10 10 10 10 10 11 11 12 12 12 12 12 12 13 12 11 10 10 10 10 11 11 11 11 12 13 13 14 14 14 14 15 15 15 15 15 15 15
8 8 8 8 8 8 9 10 10 11 11 11 11 12 12 12 11 11 11 12 11 11 10 11 10 11 10 10 10 10 12 13 14 14 15 14 15 15 15 15 15 14 14 13
8 8 8 8 8 8 8 9 9 10 11 11 11 11 11 12 12 11 11 12 10 10 9 9 10 10 10 10 9 10 11 13 14 14 14 15 15 15 14 13 14 14 14 13
7 8 8 8 8 8 7 8 9 10 11 12 12 12 12 11 12 13 13 12 11 11 11 10 11 11 11 10 11 12 12 12 12 13 13 13 13 13 13 13 13 13 13 12
7 7 8 8 7 8 8 7 9 9 10 11 11 12 12 12 11 11 12 12 12 12 12 11 11 12 11 11 12 12 12 13 13 13 13 13 13 12 12 12 12 12 13 12
7 7 7 7 8 8 8 7 7 8 9 9 10 11 11 11 12 11 11 11 12 12 12 12 12 12 12 12 12 12 12 12 12 12 12 13 13 13 13 12 13 13 12 12
7 7 7 8 8 7 7 7 8 9 8 9 9 10 10 10 10 11 11 10 10 11 11 12 12 12 11 11 11 12 12 11 11 11 11 12 12 12 12 12 11 11 10 10
8 9 8 8 8 9 9 10 9 10 10 10 10 10 9 9 10 10 10 10 10 10 10 10 10 10 10 10 10 10 10 10 10 9 9 9 10 10 10 10 9 9 9 9